This demonstration page uses our WeatherBlox Daily Observations layout. Learn more.

Left ArrowRight Arrow

Hourly Observations for May 8, 2017

Temp ( °F °C ) Dew Point ( °F °C ) Humidity (%) Winds ( mph kmh ) Pressure ( in mb ) Visibility ( mi km ) Precip ( " mm )
12:15 am 00:15 Clear 69 20.4 52 11.1 55 55 S 13 20 29.74 1007 10 16 N/A
12:35 am 00:35 Clear 68 20 52 11.2 57 57 SSW 12 19 29.74 1007 10 16 N/A
12:55 am 00:55 Clear 65 18.6 52 11.3 63 63 SSW 8 13 29.77 1008 10 16 N/A
1:15 am 01:15 Clear 65 18.6 52 11 61 61 S 7 11 29.77 1008 10 16 N/A
1:35 am 01:35 Clear 64 17.6 52 11 65 65 S 10 17 29.80 1009 10 16 N/A
1:55 am 01:55 Clear 66 19.1 51 10.5 58 58 SSW 12 19 29.77 1008 10 16 N/A
2:15 am 02:15 Clear 65 18.5 51 10.4 59 59 SSW 9 15 29.74 1007 10 16 N/A
2:35 am 02:35 Clear 66 19 50 10.2 57 57 SSW 10 17 29.77 1008 10 16 N/A
2:55 am 02:55 Clear 65 18.6 50 10.2 58 58 SSW 9 15 29.74 1007 10 16 N/A
3:15 am 03:15 Clear 65 18.6 50 10.2 58 58 S 12 19 29.74 1007 10 16 N/A
3:35 am 03:35 Clear 65 18.5 50 10.2 59 59 S 8 13 29.74 1007 10 16 N/A
3:55 am 03:55 Clear 63 17.1 51 10.3 64 64 S 7 11 29.77 1008 10 16 N/A
4:15 am 04:15 Clear 63 17 50 10.2 64 64 S 7 11 29.77 1008 10 16 N/A
4:35 am 04:35 Clear 63 17.3 50 10.1 63 63 S 10 17 29.77 1008 10 16 N/A
4:55 am 04:55 Clear 62 16.8 50 10.1 65 65 S 13 20 29.77 1008 10 16 N/A
5:15 am 05:15 Clear 62 16.8 50 10 64 64 SSW 13 20 29.77 1008 10 16 N/A
5:35 am 05:35 Clear 63 17.3 50 9.8 62 62 S 13 20 29.77 1008 10 16 N/A
5:55 am 05:55 Clear 62 16.6 50 9.8 64 64 SSW 12 19 29.77 1008 10 16 N/A
6:15 am 06:15 Clear 60 15.8 49 9.7 67 67 S 9 15 29.77 1008 10 16 N/A
6:35 am 06:35 Sunny 59 15.2 49 9.7 70 70 S 9 15 29.77 1008 10 16 N/A
6:55 am 06:55 Sunny 60 15.3 49 9.7 69 69 S 12 19 29.77 1008 10 16 N/A
7:15 am 07:15 Sunny 59 15.1 49 9.7 70 70 S 12 19 29.80 1009 10 16 N/A
7:35 am 07:35 Sunny 61 16.1 50 10 67 67 SSW 12 19 29.80 1009 10 16 N/A
7:55 am 07:55 Sunny 61 16.1 50 10.1 68 68 SSW 13 20 29.83 1010 10 16 N/A
8:15 am 08:15 Sunny 64 17.5 51 10.5 64 64 SW 12 19 29.83 1010 10 16 N/A
8:35 am 08:35 Sunny 64 18 51 10.5 62 62 SW 12 19 29.83 1010 10 16 N/A
8:55 am 08:55 Sunny 66 19 51 10.7 59 59 SW 12 19 29.80 1009 10 16 N/A
9:15 am 09:15 Sunny 69 20.3 51 10.7 54 54 SW 8 13 29.80 1009 10 16 N/A
9:35 am 09:35 Sunny 71 21.8 51 10.8 50 50 SW 9 15 29.80 1009 10 16 N/A
9:55 am 09:55 Sunny 72 22.4 51 10.4 47 47 SW 9 15 29.80 1009 10 16 N/A
10:15 am 10:15 Sunny 74 23.6 51 10.6 44 44 SW 9 15 29.80 1009 10 16 N/A
10:35 am 10:35 Sunny 76 24.3 51 10.4 42 42 SW 13 20 29.80 1009 10 16 N/A
10:55 am 10:55 Sunny 77 25 50 9.9 39 39 SW 12 19 29.80 1009 10 16 N/A
11:15 am 11:15 Sunny 78 25.8 49 9.6 36 36 W 14 22 29.80 1009 10 16 N/A
11:35 am 11:35 Sunny 79 26.1 49 9.3 35 35 SW 10 17 29.77 1008 10 16 N/A
11:55 am 11:55 Sunny 80 26.8 49 9.3 33 33 SSW 9 15 29.77 1008 10 16 N/A
12:15 pm 12:15 Sunny 81 27.2 49 9.4 33 33 WSW 9 15 29.77 1008 10 16 N/A
12:35 pm 12:35 Sunny 82 27.8 47 8.6 30 30 WSW 7 11 29.77 1008 10 16 N/A
12:55 pm 12:55 Sunny 83 28.1 48 8.7 30 30 SW 8 13 29.77 1008 10 16 N/A
1:15 pm 13:15 Partly Cloudy 82 27.6 47 8.2 29 29 SSW 3 6 29.77 1008 10 16 N/A
1:35 pm 13:35 Partly Cloudy 83 28.5 48 9.1 30 30 SW 3 6 29.77 1008 10 16 N/A
1:55 pm 13:55 Sunny 84 28.8 49 9.2 29 29 WSW 7 11 29.77 1008 10 16 N/A
2:15 pm 14:15 Mostly Cloudy 84 29.1 49 9.5 29 29 WSW 7 11 29.77 1008 10 16 N/A
2:35 pm 14:35 Partly Cloudy 86 29.8 48 8.8 27 27 S 10 17 29.74 1007 7 11 N/A
2:55 pm 14:55 Mostly Cloudy 85 29.2 47 8.3 27 27 SSW 7 11 29.77 1008 10 16 N/A
3:15 pm 15:15 Partly Cloudy 86 29.9 47 8.2 26 26 SW 13 20 29.74 1007 10 16 N/A
3:35 pm 15:35 Partly Cloudy 86 30.1 47 8.5 26 26 SW 8 13 29.74 1007 10 16 N/A
3:55 pm 15:55 Partly Cloudy 86 30.1 47 8.2 25 25 WSW 10 17 29.71 1006 10 16 N/A
4:15 pm 16:15 Sunny 86 30.1 47 8.3 26 26 SW 8 13 29.71 1006 10 16 N/A
4:35 pm 16:35 Sunny 86 30.1 47 8.2 25 25 SSW 9 15 29.71 1006 10 16 N/A
4:55 pm 16:55 Partly Cloudy 86 30 48 9 27 27 SW 15 24 29.71 1006 10 16 N/A
5:15 pm 17:15 Partly Cloudy 85 29.7 48 8.7 27 27 WSW 6 9 29.71 1006 10 16 N/A
5:35 pm 17:35 Mostly Cloudy 85 29.7 46 8 26 26 SW 9 15 29.68 1005 10 16 N/A
5:55 pm 17:55 Partly Cloudy 86 30 47 8.6 26 26 SSW 14 22 29.68 1005 10 16 N/A
6:15 pm 18:15 Mostly Cloudy 86 30.1 47 8.6 26 26 SSE 5 7 29.68 1005 10 16 N/A
6:35 pm 18:35 Partly Cloudy 86 29.9 47 8.6 26 26 SSW 6 9 29.68 1005 10 16 N/A
6:55 pm 18:55 Partly Cloudy 85 29.5 47 8.5 27 27 SSE 9 15 29.68 1005 10 16 N/A
7:15 pm 19:15 Sunny 85 29.2 47 8.4 27 27 S 8 13 29.68 1005 10 16 N/A
7:35 pm 19:35 Sunny 84 28.7 47 8.6 28 28 S 5 7 29.71 1006 10 16 N/A
7:55 pm 19:55 Mostly Cloudy 82 27.5 48 9.1 31 31 SSE 7 11 29.74 1007 10 16 N/A
8:15 pm 20:15 Cloudy 77 25.1 54 12.4 45 45 NE 7 11 29.77 1008 10 16 N/A
8:35 pm 20:35 Cloudy 73 22.6 57 13.7 57 57 NNE 16 26 29.80 1009 10 16 0.01 0.25
8:55 pm 20:55 Cloudy with Thunderstorms 71 21.4 58 14.5 65 65 NNE 12 19 29.83 1010 7 11 0.04 1.02
9:15 pm 21:15 Mostly Cloudy with Light Rain 68 20.2 58 14.6 70 70 NE 14 22 29.83 1010 10 16 0.02 0.51
9:35 pm 21:35 Partly Cloudy with Light Rain 68 19.9 58 14.6 72 72 NE 13 20 29.85 1011 10 16 0.02 0.51
9:55 pm 21:55 Partly Cloudy 67 19.5 57 13.9 70 70 NE 13 20 29.85 1011 10 16 0.02 0.51
10:15 pm 22:15 Partly Cloudy 66 18.9 56 13.4 71 71 NE 13 20 29.91 1013 10 16 N/A
10:35 pm 22:35 Clear 66 18.7 55 12.9 69 69 NNE 12 19 29.91 1013 10 16 N/A
10:55 pm 22:55 Mostly Cloudy 66 19 55 12.6 67 67 NNE 14 22 29.91 1013 10 16 N/A
11:15 pm 23:15 Cloudy 65 18.4 54 12.3 68 68 NNE 10 17 29.94 1014 10 16 N/A
11:35 pm 23:35 Partly Cloudy 64 17.7 54 12.3 71 71 NE 8 13 29.94 1014 10 16 N/A
11:55 pm 23:55 Clear 63 17.3 54 12 71 71 NE 9 15 29.94 1014 10 16 N/A

Powered by AerisWeather